Overview Statistics Trail Chart Weather Telemetry Raw packets
 

This is the latest recevied weather packets stored in our database for station/object W4UWO. If no packets are shown the sender has not sent any weather packets the latest 10 day(s).

<< 79 80 81 82 83 84 85 >>
Time Temp. Humidity Pressure Rain* Wind** Luminosity Snow
1788045702 31.67° C 44% 1018.7 hPa 0 mm - 68 W/m² -
1788045397 32.22° C 43% 1018.7 hPa 0 mm - 57 W/m² -
1788045092 32.22° C 43% 1019 hPa 0 mm - 64 W/m² -
1788044792 32.78° C 42% 1018.8 hPa 0 mm - 56 W/m² -
1788044487 33.33° C 41% 1018.8 hPa 0 mm - 61 W/m² -
1788044186 33.89° C 38% 1018.9 hPa 0 mm - 67 W/m² -
1788043882 33.89° C 39% 1018.8 hPa 0 mm - 75 W/m² -
1788043577 33.89° C 38% 1018.7 hPa 0 mm - 145 W/m² -
1788043272 33.89° C 38% 1018.7 hPa 0 mm - 177 W/m² -
1788042967 33.89° C 39% 1018.6 hPa 0 mm - 191 W/m² -
1788042663 33.89° C 39% 1018.6 hPa 0 mm - 199 W/m² -
1788042361 33.33° C 39% 1018.8 hPa 0 mm - 198 W/m² -
1788042056 33.33° C 39% 1018.7 hPa 0 mm - 192 W/m² -
1788041752 33.33° C 39% 1018.7 hPa 0 mm - 252 W/m² -
1788041447 33.33° C 40% 1018.7 hPa 0 mm - 263 W/m² -
1788041146 33.89° C 39% 1018.6 hPa 0 mm - 235 W/m² -
1788040841 33.89° C 39% 1018.8 hPa 0 mm - 207 W/m² -
1788040539 33.89° C 38% 1018.9 hPa 0 mm - 310 W/m² -
1788040236 34.44° C 37% 1018.8 hPa 0 mm - 283 W/m² -
1788039934 34.44° C 37% 1018.8 hPa 0 mm - 360 W/m² -
1788039629 34.44° C 37% 1019 hPa 0 mm - 367 W/m² -
1788039325 34.44° C 36% 1018.9 hPa 0 mm - 355 W/m² -
1788039020 34.44° C 37% 1018.9 hPa 0 mm - 366 W/m² -
1788038720 34.44° C 35% 1018.8 hPa 0 mm - 413 W/m² -
1788038415 34.44° C 37% 1018.9 hPa 0 mm - 449 W/m² -

* Rain latest hour (hover to see other rain measurements)
** Current wind speed in m/s (hover to see current wind gust speed)